Simultaneous Nadir Overpasses (SNOs) Predictions

Prediction of SNOs between GOES-16 and LANDSAT-8 Satellite Orbit:

Table of predicted SNOs for the next 14.0 days since TLE Epoch: 9/14/2024
Index Date Time (GOES-16) GOES-16 Lat,Lon LANDSAT-8 Lat,Lon Distance(km) Time Diff (sec)
1 09/14/2024 03:12:13 0.05, -75.20 0.18, -74.71 56.48 80
2 09/16/2024 03:00:02 0.05, -75.20 0.79, -71.74 393.32 80
3 09/16/2024 15:18:37 -0.05, -75.21 0.28, -76.91 192.20 80
4 09/18/2024 15:09:06 -0.05, -75.23 -0.35, -73.94 146.26 80
5 09/19/2024 03:30:29 0.05, -75.23 -0.75, -79.13 443.80 80
6 09/20/2024 14:56:53 -0.05, -75.24 -0.98, -70.98 485.58 80
7 09/21/2024 03:18:15 0.05, -75.25 -0.16, -76.16 104.27 80
8 09/23/2024 03:03:21 0.05, -75.27 0.49, -73.19 236.06 80
9 09/23/2024 15:24:36 -0.05, -75.28 0.59, -78.35 348.70 80
10 09/25/2024 15:12:20 -0.04, -75.30 -0.02, -75.37 7.24 80
11 09/27/2024 15:00:03 -0.03, -75.34 -0.63, -72.38 335.55 80
